Jennings, LA

12:35 PM CDT on July 27, 2017 (GMT -0500)
Jennings

Weather History for K3R7 - March, 2013

Change the Weather History Date:

Monday, March 4, 2013

  Actual Average (KCWF) Record (KCWF)
Temperature  
Mean Temperature 58 °F -  
Max Temperature 70 °F 66 °F 78 °F (2004)
Min Temperature 45 °F 51 °F 15 °F (2008)
Degree Days  
Heating Degree Days 8    
Growing Degree Days 8 (Base 50)    
Moisture  
Dew Point 53 °F    
Average Humidity 78    
Maximum Humidity 91    
Minimum Humidity 61    
Precipitation  
Precipitation 0.00 in - - ()
Sea Level Pressure  
Sea Level Pressure 29.97 in    
Wind  
Wind Speed 10 mph (South)    
Max Wind Speed 22 mph    
Max Gust Speed 32 mph    
Visibility 10 miles    
Events      
Averages and records for this station are not official NWS values.
T = Trace of Precipitation, MM = Missing Value Source: NWS Daily Summary

Daily Weather History Graph

Daily Weather History Graph

Search for Another Location

Airport or City:

Trip Planner

Search our weather history database for the weather conditions in past years. The results will help you decide how hot, cold, wet, or windy it might be!

Date:

Astronomy

Mar. 04, 2013 Rise Set
Actual Time 6:33 AM CST 6:11 PM CST
Civil Twilight 6:09 AM CST 6:35 PM CST
Nautical Twilight 5:41 AM CST 7:03 PM CST
Astronomical Twilight 5:13 AM CST 7:31 PM CST
Moon 12:26 AM CST (3/4) 11:11 AM CST (3/4)
Length of Visible Light 12h 26m
Length of Day
11h 38m
Waning Gibbous, 52% of the Moon is Illuminated
Mar 4
Waning Gibbous
Mar 4
Last Quarter
Mar 11
New
Mar 19
First Quarter
Mar 27
Full

Hourly Weather History & Observations

Time (CST) Temp. Windchill Dew Point Humidity Pressure Visibility Wind Dir Wind Speed Gust Speed Precip Events Conditions
12:15 AM 48.4 °F - 41.2 °F 76% 30.08 in 10.0 mi South 6.9 mph - N/A   Clear
12:35 AM 48.4 °F - 41.4 °F 77% 30.08 in 10.0 mi South 5.8 mph - N/A   Clear
12:55 AM 49.1 °F - 41.5 °F 75% 30.07 in 10.0 mi South 6.9 mph - N/A   Clear
1:35 AM 47.1 °F - 40.5 °F 78% 30.07 in 10.0 mi ESE 4.6 mph - N/A   Clear
1:55 AM 45.7 °F 43.4 °F 41.2 °F 84% 30.07 in 10.0 mi SE 4.6 mph - N/A   Clear
2:15 AM 45.9 °F 44.6 °F 41.4 °F 84% 30.06 in 10.0 mi SE 3.5 mph - N/A   Clear
2:35 AM 45.0 °F 42.6 °F 41.9 °F 89% 30.05 in 10.0 mi SE 4.6 mph - N/A   Clear
2:55 AM 45.1 °F 42.0 °F 42.3 °F 90% 30.05 in 10.0 mi SE 5.8 mph - N/A   Clear
3:15 AM 46.0 °F 43.9 °F 43.2 °F 90% 30.04 in 10.0 mi SE 4.6 mph - N/A   Clear
3:35 AM 46.8 °F - 43.7 °F 89% 30.04 in 10.0 mi SE 5.8 mph - N/A   Clear
3:55 AM 47.8 °F - 44.4 °F 88% 30.03 in 10.0 mi SSE 5.8 mph - N/A   Clear
4:15 AM 48.6 °F - 44.8 °F 87% 30.03 in 10.0 mi SE 6.9 mph - N/A   Clear
4:35 AM 47.7 °F - 44.6 °F 89% 30.03 in 10.0 mi SE 4.6 mph - N/A   Clear
4:55 AM 47.3 °F - 44.6 °F 90% 30.02 in 10.0 mi SE 5.8 mph - N/A   Clear
5:15 AM 48.0 °F - 45.5 °F 91% 30.01 in 10.0 mi SSE 6.9 mph - N/A   Clear
5:35 AM 49.5 °F - 46.4 °F 89% 30.01 in 10.0 mi SSE 9.2 mph - N/A   Clear
5:55 AM 50.0 °F - 46.9 °F 89% 30.01 in 10.0 mi SSE 6.9 mph - N/A   Clear
6:15 AM 50.4 °F - 47.5 °F 90% 30.01 in 10.0 mi SSE 6.9 mph - N/A   Clear
6:35 AM 51.6 °F - 48.2 °F 88% 30.00 in 10.0 mi SSE 6.9 mph - N/A   Clear
6:55 AM 52.9 °F - 49.1 °F 87% 30.01 in 10.0 mi South 6.9 mph - N/A   Clear
7:15 AM 54.5 °F - 50.0 °F 85% 30.01 in 10.0 mi SSE 8.1 mph - N/A   Clear
7:35 AM 56.3 °F - 50.7 °F 82% 29.99 in 10.0 mi SSE 9.2 mph 17.3 mph N/A   Clear
7:55 AM 58.6 °F - 51.8 °F 78% 30.00 in 10.0 mi South 12.7 mph 19.6 mph N/A   Clear
8:15 AM 60.1 °F - 52.2 °F 75% 30.01 in 10.0 mi South 15.0 mph 20.7 mph N/A   Clear
8:35 AM 61.7 °F - 52.9 °F 73% 30.01 in 10.0 mi South 11.5 mph 21.9 mph N/A   Clear
8:55 AM 63.1 °F - 53.6 °F 71% 30.02 in 10.0 mi South 15.0 mph 20.7 mph N/A   Scattered Clouds
9:15 AM 64.2 °F - 54.0 °F 69% 30.01 in 10.0 mi South 17.3 mph 24.2 mph N/A   Scattered Clouds
9:35 AM 65.5 °F - 54.5 °F 68% 30.02 in 10.0 mi South 15.0 mph 28.8 mph N/A   Mostly Cloudy
9:55 AM 66.2 °F - 54.5 °F 66% 30.02 in 10.0 mi SSW 18.4 mph 26.5 mph N/A   Overcast
10:15 AM 67.1 °F - 54.9 °F 65% 30.01 in 10.0 mi South 21.9 mph 28.8 mph N/A   Overcast
10:35 AM 67.1 °F - 54.7 °F 64% 30.01 in 10.0 mi South 16.1 mph 31.1 mph N/A   Overcast
10:55 AM 68.0 °F - 55.6 °F 64% 30.00 in 10.0 mi South 18.4 mph 26.5 mph N/A   Overcast
11:15 AM 68.5 °F - 55.2 °F 62% 29.99 in 10.0 mi South 18.4 mph 32.2 mph N/A   Overcast
11:35 AM 68.9 °F - 55.8 °F 63% 29.99 in 10.0 mi South 21.9 mph 29.9 mph N/A   Overcast
11:55 AM 68.4 °F - 55.6 °F 64% 29.99 in 10.0 mi South 19.6 mph 28.8 mph N/A   Overcast
12:15 PM 70.2 °F - 56.3 °F 61% 29.98 in 10.0 mi SSW 17.3 mph 27.6 mph N/A   Overcast
12:55 PM 69.8 °F - 56.3 °F 62% 29.96 in 10.0 mi SSW 20.7 mph 27.6 mph N/A   Mostly Cloudy
1:15 PM 70.0 °F - 56.5 °F 62% 29.95 in 10.0 mi SSW 17.3 mph 28.8 mph N/A   Overcast
1:35 PM 70.9 °F - 56.8 °F 61% 29.94 in 10.0 mi SSW 21.9 mph 28.8 mph N/A   Overcast
1:55 PM 69.8 °F - 56.5 °F 63% 29.93 in 10.0 mi South 18.4 mph 28.8 mph N/A   Overcast
2:15 PM 69.6 °F - 56.7 °F 63% 29.93 in 10.0 mi SSW 20.7 mph 28.8 mph N/A   Overcast
2:35 PM 69.8 °F - 57.4 °F 65% 29.92 in 10.0 mi South 18.4 mph 27.6 mph N/A   Overcast
2:55 PM 69.4 °F - 57.2 °F 65% 29.92 in 10.0 mi SSW 16.1 mph 26.5 mph N/A   Overcast
3:35 PM 69.1 °F - 57.9 °F 68% 29.91 in 10.0 mi South 19.6 mph 28.8 mph N/A   Overcast
3:55 PM 68.7 °F - 58.1 °F 69% 29.91 in 10.0 mi South 16.1 mph 28.8 mph N/A   Overcast
4:15 PM 68.5 °F - 58.1 °F 69% 29.90 in 10.0 mi South 15.0 mph 21.9 mph N/A   Overcast
4:35 PM 68.2 °F - 58.3 °F 71% 29.89 in 10.0 mi South 17.3 mph 24.2 mph N/A   Overcast
4:55 PM 68.0 °F - 58.5 °F 71% 29.90 in 10.0 mi South 12.7 mph 25.3 mph N/A   Overcast
5:15 PM 68.0 °F - 58.5 °F 71% 29.88 in 10.0 mi South 12.7 mph 24.2 mph N/A   Overcast
5:35 PM 67.1 °F - 58.5 °F 74% 29.89 in 10.0 mi South 10.4 mph 20.7 mph N/A   Overcast
5:55 PM 66.2 °F - 58.5 °F 76% 29.89 in 7.0 mi South 10.4 mph 19.6 mph N/A   Overcast
6:15 PM 65.8 °F - 58.5 °F 77% 29.89 in 10.0 mi South 11.5 mph - N/A   Overcast
6:35 PM 65.3 °F - 58.5 °F 78% 29.89 in 10.0 mi South 9.2 mph 16.1 mph N/A   Overcast
6:55 PM 64.6 °F - 58.5 °F 80% 29.89 in 10.0 mi South 10.4 mph - N/A   Overcast
7:15 PM 64.4 °F - 58.6 °F 82% 29.88 in 10.0 mi South 13.8 mph 18.4 mph N/A   Overcast
7:35 PM 64.4 °F - 59.0 °F 83% 29.88 in 10.0 mi South 12.7 mph 17.3 mph N/A   Overcast
7:55 PM 64.4 °F - 59.0 °F 83% 29.89 in 10.0 mi South 11.5 mph 16.1 mph N/A   Overcast
8:15 PM 64.2 °F - 59.0 °F 83% 29.89 in 10.0 mi South 10.4 mph - N/A   Overcast
8:35 PM 64.4 °F - 59.0 °F 83% 29.91 in 10.0 mi South 5.8 mph - N/A   Overcast
8:55 PM 63.9 °F - 59.2 °F 85% 29.90 in 10.0 mi South 11.5 mph - N/A   Overcast
9:15 PM 63.9 °F - 59.4 °F 85% 29.89 in 10.0 mi South 9.2 mph - N/A   Overcast
9:35 PM 63.9 °F - 59.4 °F 85% 29.91 in 10.0 mi South 6.9 mph - N/A   Overcast
9:55 PM 63.7 °F - 59.4 °F 86% 29.91 in 10.0 mi South 9.2 mph - N/A   Overcast
10:15 PM 63.5 °F - 59.4 °F 86% 29.91 in 10.0 mi South 8.1 mph - N/A   Overcast
10:55 PM 63.5 °F - 59.7 °F 87% 29.91 in 10.0 mi South 9.2 mph - N/A   Overcast
11:15 PM 63.0 °F - 59.5 °F 89% 29.91 in 10.0 mi South 9.2 mph - N/A   Overcast
11:35 PM 62.6 °F - 59.5 °F 90% 29.90 in 10.0 mi South 8.1 mph - N/A   Overcast
11:55 PM 62.2 °F - 59.5 °F 91% 29.89 in 10.0 mi South 10.4 mph - N/A   Overcast